East Taunton, MA

7:13 AM EST on February 26, 2017 (GMT -0500)
Taunton Municipal

Weather History for KTAN - January, 2014

Change the Weather History Date:

Tuesday, January 14, 2014

  Actual Average Record
Temperature  
Mean Temperature 48 °F -  
Max Temperature 52 °F 36 °F 64 °F (2005)
Min Temperature 45 °F 13 °F -10 °F (1974)
Degree Days  
Heating Degree Days 16    
Moisture  
Dew Point 46 °F    
Average Humidity 90    
Maximum Humidity 100    
Minimum Humidity 71    
Precipitation  
Precipitation 0.72 in - - ()
Sea Level Pressure  
Sea Level Pressure 29.72 in    
Wind  
Wind Speed 6 mph (WSW)    
Max Wind Speed 12 mph    
Max Gust Speed 23 mph    
Visibility 7 miles    
Events Rain    
Averages and records for this station are not official NWS values.
T = Trace of Precipitation, MM = Missing Value Source: NWS Daily Summary

Daily Weather History Graph

Daily Weather History Graph

Search for Another Location

Airport or City:

Trip Planner

Search our weather history database for the weather conditions in past years. The results will help you decide how hot, cold, wet, or windy it might be!

Date:

Astronomy

Jan. 14, 2014 Rise Set
Actual Time 7:09 AM EST 4:37 PM EST
Civil Twilight 6:38 AM EST 5:07 PM EST
Nautical Twilight 6:04 AM EST 5:42 PM EST
Astronomical Twilight 5:30 AM EST 6:15 PM EST
Moon 3:40 PM EST (1/14) 5:41 AM EST (1/14)
Length of Visible Light 10h 29m
Length of Day
9h 27m
Waxing Gibbous, 98% of the Moon is Illuminated
Jan 14
Waxing Gibbous
Jan 15
Full
Jan 24
Last Quarter
Jan 30
New
Feb 6
First Quarter

Hourly Weather History & Observations

Time (EST) Temp. Windchill Dew Point Humidity Pressure Visibility Wind Dir Wind Speed Gust Speed Precip Events Conditions
12:52 AM 52.0 °F - 45.0 °F 77% 29.91 in 10.0 mi SSW 9.2 mph - N/A   Overcast
1:52 AM 52.0 °F - 45.0 °F 77% 29.91 in 10.0 mi SSW 11.5 mph 18.4 mph N/A   Clear
2:52 AM 52.0 °F - 46.0 °F 80% 29.89 in 10.0 mi SSW 8.1 mph 18.4 mph N/A   Clear
3:52 AM 51.1 °F - 46.0 °F 83% 29.87 in 10.0 mi SSW 9.2 mph - N/A   Clear
4:52 AM 51.1 °F - 46.0 °F 83% 29.85 in 10.0 mi SSW 8.1 mph - N/A   Clear
5:52 AM 51.1 °F - 45.0 °F 80% 29.86 in 10.0 mi SSW 9.2 mph 23.0 mph N/A   Clear
6:52 AM 51.1 °F - 43.0 °F 74% 29.86 in 10.0 mi SW 8.1 mph 17.3 mph N/A   Clear
7:52 AM 50.0 °F - 42.1 °F 74% 29.86 in 10.0 mi Variable 6.9 mph - N/A   Overcast
8:52 AM 51.1 °F - 42.1 °F 71% 29.88 in 10.0 mi SSW 9.2 mph - N/A   Overcast
9:52 AM 51.1 °F - 44.1 °F 77% 29.87 in 10.0 mi Variable 6.9 mph 18.4 mph N/A   Overcast
10:52 AM 48.9 °F - 46.0 °F 90% 29.83 in 9.0 mi Variable 6.9 mph - 0.02 in Rain Light Rain
11:52 AM 50.0 °F - 46.9 °F 89% 29.78 in 10.0 mi SSE 4.6 mph - 0.01 in Rain Light Rain
12:08 PM 48.9 °F - 46.9 °F 93% 29.78 in 9.0 mi Variable 4.6 mph - 0.00 in Rain Light Rain
12:52 PM 48.9 °F - 46.9 °F 93% 29.75 in 8.0 mi Calm Calm - 0.03 in Rain Light Rain
1:04 PM 48.9 °F - 46.9 °F 93% 29.74 in 3.0 mi SSE 3.5 mph - 0.01 in Rain Light Rain
1:52 PM 48.9 °F - 48.0 °F 97% 29.73 in 4.0 mi Calm Calm - 0.06 in Rain Light Rain
2:04 PM 48.9 °F - 48.0 °F 97% 29.72 in 2.0 mi Calm Calm - 0.02 in Rain Light Rain
2:14 PM 50.0 °F - 48.0 °F 93% 29.72 in 4.0 mi Calm Calm - 0.02 in Rain Light Rain
2:52 PM 48.9 °F - 48.0 °F 97% 29.70 in 5.0 mi SSE 4.6 mph - 0.03 in Rain Light Rain
3:24 PM 48.9 °F - 46.9 °F 93% 29.68 in 4.0 mi SE 4.6 mph - 0.05 in Rain Rain
3:42 PM 48.9 °F - 48.0 °F 97% 29.68 in 4.0 mi SE 4.6 mph - 0.09 in Rain Rain
3:52 PM 48.9 °F - 48.0 °F 97% 29.68 in 5.0 mi SE 4.6 mph - 0.10 in Rain Light Rain
4:52 PM 48.9 °F - 48.0 °F 97% 29.63 in 6.0 mi East 4.6 mph - 0.09 in Rain Light Rain
5:52 PM 48.9 °F - 48.0 °F 97% 29.62 in 3.0 mi Calm Calm - 0.11 in Rain Rain
5:57 PM 48.9 °F - 48.0 °F 97% 29.62 in 2.0 mi Calm Calm - 0.02 in Rain Rain
6:06 PM 48.9 °F - 48.0 °F 97% 29.61 in 1.5 mi Calm Calm - 0.05 in Rain Rain
6:15 PM 48.9 °F - 46.9 °F 93% 29.61 in 1.0 mi Calm Calm - 0.07 in Rain Rain
6:37 PM 48.9 °F - 48.0 °F 97% 29.61 in 1.5 mi WNW 8.1 mph - 0.13 in Rain Rain
6:39 PM 48.9 °F - 48.0 °F 97% 29.61 in 2.0 mi WNW 6.9 mph - 0.14 in Rain Rain
6:48 PM 48.2 °F - 48.2 °F 100% 29.62 in 3.0 mi Variable 4.6 mph - 0.17 in Rain Rain
6:52 PM 48.9 °F - 48.0 °F 97% 29.62 in 3.0 mi NW 5.8 mph - 0.17 in Rain Light Rain
7:10 PM 48.9 °F - 46.9 °F 93% 29.61 in 4.0 mi NNW 5.8 mph - 0.03 in Rain Rain
7:52 PM 48.0 °F - 46.0 °F 93% 29.66 in 3.0 mi WNW 5.8 mph - 0.07 in Rain Rain
8:00 PM 48.0 °F - 46.0 °F 93% 29.65 in 4.0 mi WNW 6.9 mph - 0.01 in Rain Light Rain
8:24 PM 48.0 °F - 45.0 °F 89% 29.64 in 8.0 mi NW 5.8 mph - 0.02 in Rain Light Rain
8:35 PM 46.9 °F - 45.0 °F 93% 29.66 in 9.0 mi WNW 6.9 mph - 0.03 in Rain Light Rain
8:52 PM 46.9 °F - 45.0 °F 93% 29.64 in 10.0 mi Variable 5.8 mph - 0.03 in Rain Light Rain
9:11 PM 46.9 °F - 44.1 °F 90% 29.63 in 10.0 mi NW 8.1 mph - 0.00 in Rain Light Rain
9:20 PM 46.9 °F - 43.0 °F 86% 29.61 in 10.0 mi North 6.9 mph - 0.00 in   Overcast
9:37 PM 46.0 °F 43.9 °F 43.0 °F 89% 29.62 in 10.0 mi Variable 4.6 mph - 0.00 in   Overcast
9:52 PM 46.0 °F 42.5 °F 43.0 °F 89% 29.68 in 10.0 mi West 6.9 mph - 0.00 in   Overcast
10:52 PM 45.0 °F 40.6 °F 43.0 °F 93% 29.73 in 10.0 mi West 8.1 mph - 0.00 in   Overcast
11:52 PM 45.0 °F 41.8 °F 41.0 °F 86% 29.76 in 10.0 mi West 5.8 mph - 0.00 in Rain Light Rain